Tracking 27380 objects as of 6-Jun-2023
HD Live streaming from Space Station
objects crossing your sky now

OPS 4682 DEB

Track OPS 4682 DEB now!
10-day predictions


NORAD ID: 38431
Int'l Code: 1965-027EL
Perigee: 1,252.2 km
Apogee: 1,287.1 km
Inclination: 90.3 °
Period: 110.8 minutes
Semi major axis: 7640 km
RCS: 0.0148 m2 (small)
Launch date: April 3, 1965
Source: United States (US)
Launch site: AIR FORCE WESTERN TEST RANGE (AFWTR)

Note: This is SATELLITE DEBRIS
Your satellite tracking list
Your tracking list is empty




NASA's NSSDC Master Catalog

Two Line Element Set (TLE):
1 38431U 65027EL  23155.43721141 -.00000353  00000-0 -11988-2 0  9990
2 38431  90.2559 332.7512 0022826 288.7340  71.1305 12.99883323520480
Source of the keplerian elements: AFSPC